N254SB KBOS-KTEB

Flight info

Callsign N254SB
Flight time 0h 56m
Altitude 43000
Route BLZZR6 BLZZR BAF MOBBS SAGES/N0375F160 V489 COATE
Aircraft CL35/M-SDFGIRW/S

Departure

Time 2026-05-07 21:35
Airport Boston Logan International Airport (KBOS)

Arrival

Time 2026-05-07 22:31
Airport Teterboro Airport (KTEB)
Time Latitude Longitude Altitude Speed Heading
2026-05-07 21:03 42.37389 -71.02084 20 ft 0 kts 311°
2026-05-07 21:27 42.37394 -71.02083 20 ft 0 kts 11°
2026-05-07 21:27 42.37397 -71.02071 21 ft 1 kts 87°
2026-05-07 21:28 42.37400 -71.02023 20 ft 8 kts 58°
2026-05-07 21:28 42.37392 -71.01952 21 ft 9 kts 134°
2026-05-07 21:28 42.37337 -71.01880 20 ft 13 kts 137°
2026-05-07 21:28 42.37258 -71.01775 20 ft 20 kts 136°
2026-05-07 21:29 42.37149 -71.01628 20 ft 24 kts 135°
2026-05-07 21:29 42.37026 -71.01465 22 ft 26 kts 136°
2026-05-07 21:29 42.36901 -71.01306 21 ft 20 kts 130°
2026-05-07 21:29 42.36796 -71.01160 20 ft 23 kts 146°
2026-05-07 21:30 42.36652 -71.01188 20 ft 23 kts 203°
2026-05-07 21:30 42.36495 -71.01257 20 ft 25 kts 197°
2026-05-07 21:30 42.36346 -71.01317 22 ft 16 kts 157°
2026-05-07 21:30 42.36275 -71.01184 20 ft 19 kts 123°
2026-05-07 21:31 42.36213 -71.01008 20 ft 22 kts 115°
2026-05-07 21:31 42.36146 -71.00806 20 ft 25 kts 110°
2026-05-07 21:31 42.36084 -71.00577 22 ft 28 kts 109°
2026-05-07 21:31 42.36019 -71.00324 20 ft 30 kts 108°
2026-05-07 21:32 42.35936 -71.00059 20 ft 32 kts 129°
2026-05-07 21:32 42.35775 -70.99842 20 ft 34 kts 135°
2026-05-07 21:32 42.35664 -70.99693 20 ft 34 kts 136°
2026-05-07 21:32 42.35488 -70.99424 20 ft 7 kts 81°
2026-05-07 21:33 42.35502 -70.99333 22 ft 12 kts 77°
2026-05-07 21:33 42.35490 -70.99232 21 ft 11 kts 143°
2026-05-07 21:33 42.35484 -70.99193 20 ft 3 kts 352°
2026-05-07 21:33 42.35489 -70.99198 20 ft 0 kts 315°
2026-05-07 21:34 42.35559 -70.99293 20 ft 55 kts 317°
2026-05-07 21:34 42.36134 -71.00096 72 ft 175 kts 309°
2026-05-07 21:35 42.37213 -71.01519 795 ft 255 kts 314°
2026-05-07 21:35 42.38504 -71.03178 2021 ft 233 kts 315°
2026-05-07 21:35 42.39483 -71.04846 2095 ft 228 kts 296°
2026-05-07 21:35 42.40077 -71.06824 2068 ft 226 kts 291°
2026-05-07 21:36 42.40704 -71.08765 2066 ft 223 kts 292°
2026-05-07 21:36 42.40896 -71.10791 2286 ft 214 kts 264°
2026-05-07 21:36 42.40496 -71.12638 2690 ft 200 kts 252°
2026-05-07 21:36 42.40034 -71.14355 3096 ft 188 kts 253°
2026-05-07 21:37 42.39608 -71.15979 3499 ft 177 kts 253°
2026-05-07 21:37 42.39142 -71.17709 3950 ft 229 kts 252°
2026-05-07 21:37 42.38589 -71.19728 4459 ft 225 kts 251°
2026-05-07 21:37 42.38027 -71.21766 4920 ft 239 kts 251°
2026-05-07 21:38 42.37436 -71.23906 5384 ft 246 kts 251°
2026-05-07 21:38 42.36839 -71.26077 5838 ft 240 kts 252°
2026-05-07 21:38 42.36281 -71.28125 6253 ft 223 kts 252°
2026-05-07 21:38 42.35758 -71.30036 6648 ft 211 kts 252°
2026-05-07 21:39 42.35262 -71.31842 7033 ft 199 kts 252°
2026-05-07 21:39 42.34794 -71.33546 7440 ft 188 kts 253°
2026-05-07 21:39 42.34354 -71.35133 7827 ft 177 kts 252°
2026-05-07 21:39 42.33879 -71.36626 8231 ft 168 kts 252°
2026-05-07 21:40 42.33446 -71.38085 8655 ft 182 kts 253°
2026-05-07 21:40 42.32898 -71.39982 9276 ft 250 kts 252°
2026-05-07 21:40 42.32160 -71.42372 10197 ft 299 kts 250°
2026-05-07 21:40 42.31353 -71.44906 11144 ft 285 kts 249°
2026-05-07 21:41 42.30582 -71.47389 12028 ft 286 kts 250°
2026-05-07 21:41 42.29829 -71.49865 12929 ft 284 kts 250°
2026-05-07 21:41 42.29066 -71.52370 13922 ft 289 kts 249°
2026-05-07 21:41 42.28291 -71.54871 14945 ft 289 kts 248°
2026-05-07 21:42 42.27512 -71.57391 15769 ft 295 kts 248°
2026-05-07 21:42 42.26708 -71.59995 15801 ft 294 kts 248°
2026-05-07 21:42 42.25905 -71.62572 15801 ft 297 kts 248°
2026-05-07 21:42 42.25124 -71.65090 15797 ft 284 kts 248°
2026-05-07 21:43 42.24369 -71.67529 15795 ft 285 kts 248°
2026-05-07 21:43 42.23594 -71.70039 15801 ft 293 kts 248°
2026-05-07 21:43 42.22799 -71.72600 15811 ft 299 kts 248°
2026-05-07 21:43 42.22018 -71.75224 15815 ft 304 kts 251°
2026-05-07 21:44 42.21617 -71.78040 15812 ft 310 kts 262°
2026-05-07 21:44 42.21479 -71.80924 15811 ft 313 kts 263°
2026-05-07 21:44 42.21317 -71.83869 15812 ft 315 kts 263°
2026-05-07 21:44 42.21142 -71.86832 15817 ft 319 kts 263°
2026-05-07 21:45 42.20981 -71.89781 15811 ft 312 kts 263°
2026-05-07 21:45 42.20823 -71.92736 15814 ft 318 kts 263°
2026-05-07 21:45 42.20663 -71.95679 15806 ft 312 kts 263°
2026-05-07 21:45 42.20499 -71.98599 15810 ft 312 kts 263°
2026-05-07 21:46 42.20333 -72.01516 15810 ft 312 kts 263°
2026-05-07 21:46 42.20170 -72.04430 15812 ft 312 kts 263°
2026-05-07 21:46 42.20007 -72.07351 15813 ft 312 kts 263°
2026-05-07 21:46 42.19842 -72.10265 15816 ft 312 kts 263°
2026-05-07 21:47 42.19676 -72.13182 15819 ft 312 kts 263°
2026-05-07 21:47 42.19509 -72.16098 15820 ft 311 kts 263°
2026-05-07 21:47 42.19342 -72.19011 15821 ft 312 kts 263°
2026-05-07 21:47 42.19174 -72.21924 15819 ft 312 kts 263°
2026-05-07 21:48 42.19006 -72.24839 15813 ft 312 kts 263°
2026-05-07 21:48 42.18835 -72.27759 15811 ft 312 kts 263°
2026-05-07 21:48 42.18658 -72.30678 15808 ft 312 kts 261°
2026-05-07 21:48 42.18172 -72.33515 15802 ft 310 kts 253°
2026-05-07 21:49 42.17558 -72.36302 15802 ft 310 kts 253°
2026-05-07 21:49 42.17038 -72.39128 15802 ft 311 kts 256°
2026-05-07 21:49 42.16570 -72.41980 15797 ft 311 kts 256°
2026-05-07 21:49 42.16066 -72.44780 15799 ft 311 kts 255°
2026-05-07 21:50 42.15532 -72.47609 15803 ft 312 kts 255°
2026-05-07 21:50 42.15013 -72.50443 15801 ft 312 kts 255°
2026-05-07 21:50 42.14503 -72.53287 15800 ft 312 kts 255°
2026-05-07 21:50 42.14010 -72.56007 15791 ft 284 kts 255°
2026-05-07 21:51 42.13558 -72.58465 15782 ft 257 kts 255°
2026-05-07 21:51 42.13147 -72.60705 15781 ft 235 kts 255°
2026-05-07 21:51 42.12771 -72.62756 15817 ft 216 kts 255°
2026-05-07 21:51 42.12425 -72.64643 15816 ft 199 kts 255°
2026-05-07 21:52 42.12104 -72.66386 15815 ft 187 kts 254°
2026-05-07 21:52 42.11771 -72.68082 15825 ft 188 kts 253°
2026-05-07 21:52 42.11452 -72.69792 15828 ft 189 kts 255°
2026-05-07 21:52 42.11136 -72.71547 15828 ft 210 kts 255°
2026-05-07 21:53 42.10743 -72.73794 15873 ft 284 kts 256°
2026-05-07 21:53 42.10222 -72.76669 15886 ft 328 kts 255°
2026-05-07 21:53 42.09654 -72.79648 15851 ft 322 kts 255°
2026-05-07 21:53 42.09121 -72.82517 15813 ft 309 kts 255°
2026-05-07 21:54 42.08625 -72.85236 15805 ft 297 kts 255°
2026-05-07 21:54 42.08127 -72.87908 15764 ft 291 kts 255°
2026-05-07 21:54 42.07635 -72.90523 15758 ft 286 kts 255°
2026-05-07 21:54 42.07156 -72.93092 15729 ft 281 kts 255°
2026-05-07 21:55 42.06686 -72.95628 15722 ft 277 kts 255°
2026-05-07 21:55 42.06219 -72.98134 15726 ft 274 kts 255°
2026-05-07 21:55 42.05756 -73.00610 15722 ft 272 kts 255°
2026-05-07 21:55 42.05296 -73.03066 15733 ft 269 kts 255°
2026-05-07 21:56 42.04839 -73.05503 15739 ft 268 kts 255°
2026-05-07 21:56 42.04385 -73.07926 15754 ft 266 kts 255°
2026-05-07 21:56 42.03933 -73.10332 15759 ft 265 kts 255°
2026-05-07 21:56 42.03483 -73.12726 15760 ft 264 kts 255°
2026-05-07 21:57 42.03031 -73.15116 15750 ft 263 kts 255°
2026-05-07 21:57 42.02583 -73.17493 15753 ft 262 kts 255°
2026-05-07 21:57 42.02135 -73.19866 15757 ft 261 kts 255°
2026-05-07 21:57 42.01687 -73.22236 15770 ft 261 kts 255°
2026-05-07 21:58 42.01240 -73.24598 15785 ft 260 kts 255°
2026-05-07 21:58 42.00792 -73.26959 15803 ft 260 kts 255°
2026-05-07 21:58 42.00345 -73.29314 15803 ft 260 kts 255°
2026-05-07 21:58 41.99894 -73.31692 15771 ft 274 kts 255°
2026-05-07 21:59 41.99382 -73.34374 15847 ft 318 kts 255°
2026-05-07 21:59 41.98797 -73.37433 15863 ft 355 kts 255°
2026-05-07 21:59 41.98208 -73.40553 15849 ft 332 kts 255°
2026-05-07 21:59 41.97654 -73.43490 15836 ft 318 kts 255°
2026-05-07 22:00 41.97114 -73.46281 15832 ft 307 kts 255°
2026-05-07 22:00 41.96580 -73.49051 15836 ft 308 kts 255°
2026-05-07 22:00 41.96044 -73.51862 15853 ft 311 kts 255°
2026-05-07 22:00 41.95502 -73.54687 15853 ft 314 kts 255°
2026-05-07 22:01 41.94950 -73.57540 15854 ft 316 kts 255°
2026-05-07 22:01 41.94396 -73.60411 15854 ft 319 kts 255°
2026-05-07 22:01 41.93840 -73.63303 15855 ft 321 kts 255°
2026-05-07 22:01 41.93278 -73.66213 15853 ft 322 kts 255°
2026-05-07 22:02 41.92712 -73.69128 15852 ft 323 kts 255°
2026-05-07 22:02 41.92145 -73.72058 15856 ft 324 kts 255°
2026-05-07 22:02 41.91577 -73.74990 15851 ft 325 kts 255°
2026-05-07 22:02 41.91003 -73.77930 15853 ft 326 kts 255°
2026-05-07 22:03 41.90426 -73.80881 15878 ft 326 kts 255°
2026-05-07 22:03 41.89872 -73.83736 16137 ft 306 kts 255°
2026-05-07 22:03 41.89348 -73.86454 15867 ft 299 kts 255°
2026-05-07 22:03 41.88833 -73.89137 15846 ft 295 kts 255°
2026-05-07 22:04 41.88330 -73.91763 15844 ft 292 kts 255°
2026-05-07 22:04 41.87829 -73.94389 15841 ft 289 kts 255°
2026-05-07 22:04 41.87337 -73.96985 15849 ft 285 kts 255°
2026-05-07 22:04 41.86851 -73.99559 15847 ft 284 kts 255°
2026-05-07 22:05 41.86368 -74.02122 15849 ft 282 kts 255°
2026-05-07 22:05 41.85890 -74.04665 15850 ft 281 kts 255°
2026-05-07 22:05 41.85416 -74.07205 15850 ft 280 kts 255°
2026-05-07 22:05 41.84945 -74.09736 15849 ft 279 kts 255°
2026-05-07 22:06 41.84477 -74.12256 15846 ft 278 kts 255°
2026-05-07 22:06 41.84012 -74.14773 15851 ft 278 kts 255°
2026-05-07 22:06 41.83551 -74.17282 15854 ft 277 kts 255°
2026-05-07 22:06 41.83093 -74.19785 15853 ft 276 kts 256°
2026-05-07 22:07 41.82637 -74.22285 15854 ft 276 kts 256°
2026-05-07 22:07 41.82182 -74.24788 15856 ft 276 kts 256°
2026-05-07 22:07 41.81730 -74.27288 15858 ft 276 kts 256°
2026-05-07 22:07 41.81281 -74.29783 15859 ft 276 kts 256°
2026-05-07 22:08 41.80831 -74.32300 15860 ft 285 kts 256°
2026-05-07 22:08 41.80364 -74.34936 15878 ft 293 kts 256°
2026-05-07 22:08 41.79893 -74.37624 15883 ft 299 kts 256°
2026-05-07 22:08 41.79420 -74.40335 15881 ft 306 kts 256°
2026-05-07 22:09 41.78933 -74.43139 15875 ft 312 kts 256°
2026-05-07 22:09 41.78441 -74.45990 15882 ft 316 kts 256°
2026-05-07 22:09 41.77946 -74.48881 15883 ft 320 kts 256°
2026-05-07 22:09 41.77448 -74.51807 15876 ft 323 kts 257°
2026-05-07 22:10 41.76588 -74.54494 16282 ft 315 kts 232°
2026-05-07 22:10 41.74714 -74.56150 16091 ft 337 kts 207°
2026-05-07 22:10 41.72365 -74.56767 16132 ft 351 kts 191°
2026-05-07 22:10 41.69886 -74.56834 16007 ft 362 kts 185°
2026-05-07 22:11 41.67349 -74.56363 15886 ft 372 kts 178°
2026-05-07 22:11 41.64792 -74.55782 15877 ft 374 kts 177°
2026-05-07 22:11 41.62228 -74.55314 15855 ft 366 kts 187°
2026-05-07 22:11 41.59738 -74.55650 15847 ft 359 kts 195°
2026-05-07 22:12 41.57232 -74.56114 15445 ft 364 kts 194°
2026-05-07 22:12 41.54794 -74.56532 14985 ft 344 kts 195°
2026-05-07 22:12 41.52471 -74.56966 14547 ft 329 kts 196°
2026-05-07 22:12 41.50246 -74.57415 14117 ft 318 kts 196°
2026-05-07 22:13 41.48084 -74.57827 13723 ft 311 kts 196°
2026-05-07 22:13 41.45965 -74.58215 13296 ft 304 kts 196°
2026-05-07 22:13 41.43884 -74.58605 12902 ft 299 kts 196°
2026-05-07 22:13 41.41831 -74.58997 12508 ft 298 kts 195°
2026-05-07 22:14 41.39827 -74.59551 12120 ft 291 kts 202°
2026-05-07 22:14 41.37893 -74.60321 11741 ft 289 kts 204°
2026-05-07 22:14 41.35942 -74.61093 11362 ft 298 kts 202°
2026-05-07 22:14 41.33911 -74.61850 10960 ft 306 kts 201°
2026-05-07 22:15 41.31855 -74.62611 10554 ft 306 kts 201°
2026-05-07 22:15 41.29819 -74.63359 10152 ft 294 kts 198°
2026-05-07 22:15 41.27861 -74.63634 9778 ft 274 kts 189°
2026-05-07 22:15 41.26031 -74.63803 9418 ft 261 kts 191°
2026-05-07 22:16 41.24262 -74.64018 9082 ft 251 kts 191°
2026-05-07 22:16 41.22543 -74.64225 8751 ft 245 kts 191°
2026-05-07 22:16 41.20859 -74.64407 8448 ft 241 kts 191°
2026-05-07 22:16 41.19201 -74.64585 8135 ft 237 kts 190°
2026-05-07 22:17 41.17529 -74.64776 7827 ft 245 kts 190°
2026-05-07 22:17 41.15830 -74.64967 7501 ft 246 kts 189°
2026-05-07 22:17 41.14117 -74.65153 7176 ft 247 kts 189°
2026-05-07 22:17 41.12411 -74.65341 6845 ft 247 kts 189°
2026-05-07 22:18 41.10698 -74.65531 6528 ft 247 kts 189°
2026-05-07 22:18 41.07262 -74.65910 5848 ft 248 kts 188°
2026-05-07 22:18 41.06120 -74.66035 5635 ft 248 kts 188°
2026-05-07 22:19 41.04395 -74.66227 5305 ft 249 kts 188°
2026-05-07 22:19 41.02667 -74.66418 4980 ft 250 kts 188°
2026-05-07 22:19 41.00932 -74.66606 4648 ft 251 kts 188°
2026-05-07 22:19 40.99186 -74.66798 4305 ft 251 kts 188°
2026-05-07 22:20 40.97439 -74.66992 3966 ft 252 kts 188°
2026-05-07 22:20 40.95688 -74.67185 3637 ft 253 kts 188°
2026-05-07 22:20 40.93958 -74.67373 3380 ft 237 kts 188°
2026-05-07 22:20 40.92392 -74.67398 3065 ft 222 kts 174°
2026-05-07 22:21 40.91032 -74.66530 2952 ft 222 kts 142°
2026-05-07 22:21 40.90102 -74.64905 2959 ft 222 kts 120°
2026-05-07 22:21 40.89353 -74.63098 2977 ft 226 kts 121°
2026-05-07 22:21 40.88551 -74.61284 2998 ft 230 kts 122°
2026-05-07 22:22 40.87741 -74.59431 2995 ft 234 kts 121°
2026-05-07 22:22 40.86943 -74.57544 3010 ft 235 kts 120°
2026-05-07 22:22 40.86144 -74.55679 3021 ft 238 kts 121°
2026-05-07 22:22 40.85332 -74.53801 3043 ft 239 kts 121°
2026-05-07 22:23 40.84493 -74.51859 3049 ft 242 kts 121°
2026-05-07 22:23 40.83659 -74.49916 3052 ft 242 kts 120°
2026-05-07 22:23 40.82830 -74.48002 3055 ft 238 kts 121°
2026-05-07 22:23 40.82008 -74.46111 3037 ft 235 kts 121°
2026-05-07 22:24 40.81199 -74.44240 3043 ft 232 kts 120°
2026-05-07 22:24 40.80403 -74.42390 3035 ft 230 kts 120°
2026-05-07 22:24 40.79543 -74.40667 3034 ft 227 kts 131°
2026-05-07 22:24 40.78520 -74.39085 3045 ft 226 kts 132°
2026-05-07 22:25 40.77526 -74.37485 3038 ft 224 kts 131°
2026-05-07 22:25 40.76549 -74.35878 3036 ft 224 kts 131°
2026-05-07 22:25 40.75551 -74.34274 2898 ft 229 kts 132°
2026-05-07 22:25 40.74559 -74.32688 2711 ft 235 kts 132°
2026-05-07 22:26 40.73484 -74.30979 2479 ft 240 kts 131°
2026-05-07 22:26 40.72443 -74.29241 2082 ft 241 kts 125°
2026-05-07 22:26 40.71992 -74.27159 1888 ft 235 kts 89°
2026-05-07 22:26 40.72422 -74.25175 1836 ft 220 kts 56°
2026-05-07 22:27 40.73325 -74.23741 1847 ft 184 kts 44°
2026-05-07 22:27 40.74144 -74.22544 1819 ft 173 kts 44°
2026-05-07 22:27 40.74962 -74.21332 1720 ft 179 kts 45°
2026-05-07 22:27 40.75826 -74.20057 1587 ft 191 kts 44°
2026-05-07 22:28 40.76697 -74.18778 1405 ft 185 kts 45°
2026-05-07 22:28 40.77542 -74.17532 1225 ft 179 kts 45°
2026-05-07 22:28 40.78342 -74.16353 1163 ft 171 kts 44°
2026-05-07 22:28 40.79149 -74.15170 1143 ft 174 kts 44°
2026-05-07 22:29 40.79961 -74.13979 1139 ft 174 kts 44°
2026-05-07 22:29 40.80773 -74.12788 1135 ft 175 kts 44°
2026-05-07 22:29 40.81588 -74.11592 950 ft 178 kts 45°
2026-05-07 22:29 40.82393 -74.10396 704 ft 171 kts 44°
2026-05-07 22:30 40.83164 -74.09279 547 ft 161 kts 43°
2026-05-07 22:30 40.83894 -74.08179 324 ft 156 kts 41°
2026-05-07 22:30 40.84607 -74.07128 113 ft 151 kts 38°
2026-05-07 22:30 40.85266 -74.06159 10 ft 127 kts 41°
2026-05-07 22:31 40.85649 -74.05597 15 ft 36 kts 50°
2026-05-07 22:31 40.85741 -74.05418 13 ft 7 kts 46°